User: anonymous   Login
Location: Oshawa
(43.9000°N, 78.8670°W)
Time: 20:46:32
(UTC-04:00)
Language:

CZ-4C R/B - Orbit

View from above orbital plane
View from above orbital plane
View from above satellite
View from above satellite

Ground track
Ground track

The orbit data is extracted from the following two-line orbital elements,

1 32290U 07055B   18111.51714283 +.00003057 +00000-0 +83049-4 0  9999
2 32290 097.5490 230.1342 0066046 111.6228 249.2068 15.36201870579050
Epoch (UTC): 21 April 2018 12:24:41
Eccentricity: 0.0066046
inclination: 97.5490°
perigee height: 412 km
apogee height: 502 km
right ascension of ascending node: 230.1342°
argument of perigee: 111.6228°
revolutions per day: 15.36201870
mean anomaly at epoch: 249.2068°
orbit number at epoch: 57905

The dashed part of the orbit path shows where the satellite is in the earth's shadow,  

DLR